FWI2234 TNCM-MKJS

Flight info

Callsign FWI2234
Flight time 2h 9m
Altitude 35000
Route BOPAT2 GOUDA DCT HOMAG DCT MAZ G633 MELLA UT15 CDO UL577 KEBET UW6 SENLA LENAR7
Aircraft A359/H-SDE2E3GHIJ3J4J5LM1ORWXY/LB1D1

Departure

Time 2026-05-06 17:29
Airport Princess Juliana International Airport (TNCM)

Arrival

Time 2026-05-06 19:38
Airport Sangster International Airport (MKJS)
Time Latitude Longitude Altitude Speed Heading
2026-05-06 17:07 18.04310 -63.11429 27 ft 0 kts 352°
2026-05-06 17:22 18.04303 -63.11428 27 ft 2 kts 350°
2026-05-06 17:22 18.04287 -63.11424 25 ft 2 kts 344°
2026-05-06 17:22 18.04271 -63.11418 25 ft 2 kts 335°
2026-05-06 17:22 18.04257 -63.11410 23 ft 2 kts 321°
2026-05-06 17:23 18.04246 -63.11398 25 ft 2 kts 300°
2026-05-06 17:23 18.04240 -63.11382 26 ft 2 kts 278°
2026-05-06 17:23 18.04239 -63.11366 27 ft 1 kts 264°
2026-05-06 17:23 18.04240 -63.11361 27 ft 0 kts 262°
2026-05-06 17:25 18.04231 -63.11416 27 ft 11 kts 260°
2026-05-06 17:25 18.04202 -63.11494 27 ft 12 kts 240°
2026-05-06 17:26 18.04151 -63.11570 27 ft 13 kts 233°
2026-05-06 17:26 18.04092 -63.11654 27 ft 15 kts 234°
2026-05-06 17:26 18.04052 -63.11753 27 ft 15 kts 263°
2026-05-06 17:26 18.04044 -63.11833 27 ft 0 kts 263°
2026-05-06 17:27 18.04018 -63.11916 27 ft 12 kts 243°
2026-05-06 17:27 18.03957 -63.11960 28 ft 5 kts 161°
2026-05-06 17:28 18.03947 -63.11927 28 ft 5 kts 91°
2026-05-06 17:28 18.03961 -63.11829 28 ft 36 kts 81°
2026-05-06 17:28 18.04039 -63.11281 27 ft 114 kts 82°
2026-05-06 17:28 18.04191 -63.10227 147 ft 169 kts 81°
2026-05-06 17:29 18.04221 -63.08951 724 ft 185 kts 108°
2026-05-06 17:29 18.03283 -63.07981 1353 ft 207 kts 160°
2026-05-06 17:29 18.01824 -63.08029 1866 ft 215 kts 194°
2026-05-06 17:29 18.00479 -63.08705 2515 ft 214 kts 213°
2026-05-06 17:30 17.99485 -63.09857 3097 ft 217 kts 237°
2026-05-06 17:30 17.98654 -63.11246 3380 ft 232 kts 233°
2026-05-06 17:30 17.97713 -63.12690 3651 ft 248 kts 231°
2026-05-06 17:30 17.96665 -63.14207 3946 ft 263 kts 232°
2026-05-06 17:31 17.95556 -63.15770 4413 ft 270 kts 231°
2026-05-06 17:31 17.94418 -63.17354 4990 ft 273 kts 230°
2026-05-06 17:31 17.93267 -63.18944 5570 ft 275 kts 231°
2026-05-06 17:31 17.92102 -63.20554 6134 ft 278 kts 231°
2026-05-06 17:32 17.91128 -63.22300 6687 ft 284 kts 246°
2026-05-06 17:32 17.90734 -63.24343 7226 ft 289 kts 269°
2026-05-06 17:32 17.90812 -63.26452 7852 ft 291 kts 273°
2026-05-06 17:32 17.90966 -63.28583 8420 ft 295 kts 273°
2026-05-06 17:33 17.91120 -63.30728 9094 ft 294 kts 273°
2026-05-06 17:33 17.91268 -63.32872 9743 ft 294 kts 274°
2026-05-06 17:33 17.91411 -63.35029 10062 ft 297 kts 273°
2026-05-06 17:33 17.91553 -63.37221 10217 ft 305 kts 274°
2026-05-06 17:34 17.91698 -63.39478 10360 ft 313 kts 274°
2026-05-06 17:34 17.91845 -63.41790 10536 ft 322 kts 274°
2026-05-06 17:34 17.91997 -63.44179 10717 ft 332 kts 274°
2026-05-06 17:34 17.92152 -63.46637 10899 ft 342 kts 274°
2026-05-06 17:35 17.92311 -63.49161 11074 ft 351 kts 274°
2026-05-06 17:35 17.92475 -63.51762 11251 ft 360 kts 274°
2026-05-06 17:35 17.92639 -63.54376 11416 ft 369 kts 274°
2026-05-06 17:36 17.92982 -63.59869 11745 ft 384 kts 274°
2026-05-06 17:36 17.93158 -63.62693 11872 ft 391 kts 274°
2026-05-06 17:36 17.93336 -63.65563 12100 ft 395 kts 274°
2026-05-06 17:36 17.93523 -63.68461 12333 ft 399 kts 275°
2026-05-06 17:37 17.93778 -63.71387 12470 ft 405 kts 276°
2026-05-06 17:37 17.94084 -63.74353 12647 ft 410 kts 277°
2026-05-06 17:37 17.94404 -63.77332 12886 ft 412 kts 277°
2026-05-06 17:37 17.94722 -63.80315 13244 ft 411 kts 277°
2026-05-06 17:38 17.95034 -63.83312 13567 ft 411 kts 277°
2026-05-06 17:38 17.95336 -63.86295 13932 ft 412 kts 277°
2026-05-06 17:38 17.95630 -63.89261 14201 ft 415 kts 277°
2026-05-06 17:38 17.95927 -63.92289 14565 ft 417 kts 277°
2026-05-06 17:39 17.96222 -63.95321 14909 ft 419 kts 277°
2026-05-06 17:39 17.96517 -63.98362 15381 ft 420 kts 276°
2026-05-06 17:39 17.96814 -64.01425 15820 ft 422 kts 277°
2026-05-06 17:39 17.97111 -64.04492 16271 ft 424 kts 277°
2026-05-06 17:40 17.97411 -64.07584 16706 ft 426 kts 277°
2026-05-06 17:40 17.97711 -64.10683 17132 ft 429 kts 276°
2026-05-06 17:40 17.98013 -64.13808 17579 ft 431 kts 277°
2026-05-06 17:40 17.98315 -64.16950 18019 ft 433 kts 277°
2026-05-06 17:41 17.98619 -64.20107 18441 ft 436 kts 277°
2026-05-06 17:41 17.98924 -64.23283 18786 ft 439 kts 277°
2026-05-06 17:41 17.99231 -64.26481 19123 ft 442 kts 277°
2026-05-06 17:41 17.99436 -64.28613 19345 ft 444 kts 277°
2026-05-06 17:42 17.99746 -64.31854 19684 ft 447 kts 277°
2026-05-06 17:42 18.00057 -64.35111 20030 ft 450 kts 277°
2026-05-06 17:42 18.00370 -64.38397 20361 ft 453 kts 277°
2026-05-06 17:42 18.00684 -64.41691 20711 ft 456 kts 277°
2026-05-06 17:43 18.01000 -64.45022 21063 ft 459 kts 277°
2026-05-06 17:43 18.01318 -64.48375 21415 ft 461 kts 277°
2026-05-06 17:43 18.01636 -64.51739 21758 ft 465 kts 277°
2026-05-06 17:43 18.01957 -64.55133 22099 ft 468 kts 277°
2026-05-06 17:44 18.02275 -64.58506 22438 ft 471 kts 277°
2026-05-06 17:44 18.02598 -64.61946 22769 ft 474 kts 277°
2026-05-06 17:44 18.02923 -64.65403 23119 ft 477 kts 277°
2026-05-06 17:44 18.03249 -64.68877 23457 ft 480 kts 277°
2026-05-06 17:45 18.03576 -64.72379 23772 ft 483 kts 277°
2026-05-06 17:45 18.03905 -64.75904 24092 ft 484 kts 277°
2026-05-06 17:45 18.04233 -64.79430 24424 ft 486 kts 277°
2026-05-06 17:45 18.04562 -64.82970 24788 ft 487 kts 277°
2026-05-06 17:46 18.04886 -64.86473 25149 ft 489 kts 277°
2026-05-06 17:46 18.05215 -64.90030 25535 ft 490 kts 277°
2026-05-06 17:46 18.05545 -64.93600 25921 ft 491 kts 277°
2026-05-06 17:46 18.05875 -64.97180 26320 ft 493 kts 277°
2026-05-06 17:47 18.06206 -65.00775 26658 ft 496 kts 277°
2026-05-06 17:47 18.06539 -65.04394 27028 ft 498 kts 277°
2026-05-06 17:47 18.06872 -65.08024 27432 ft 500 kts 277°
2026-05-06 17:47 18.07205 -65.11665 27843 ft 502 kts 277°
2026-05-06 17:48 18.07539 -65.15330 28209 ft 504 kts 277°
2026-05-06 17:48 18.07873 -65.18994 28571 ft 506 kts 277°
2026-05-06 17:48 18.08209 -65.22688 28916 ft 508 kts 276°
2026-05-06 17:48 18.08544 -65.26393 29253 ft 508 kts 276°
2026-05-06 17:49 18.08878 -65.30086 29709 ft 506 kts 276°
2026-05-06 17:49 18.09211 -65.33773 30111 ft 506 kts 276°
2026-05-06 17:49 18.09542 -65.37446 30487 ft 504 kts 276°
2026-05-06 17:49 18.09870 -65.41105 30886 ft 502 kts 276°
2026-05-06 17:50 18.10197 -65.44752 31292 ft 499 kts 276°
2026-05-06 17:50 18.10521 -65.48372 31703 ft 497 kts 276°
2026-05-06 17:50 18.10845 -65.51988 32107 ft 495 kts 276°
2026-05-06 17:50 18.11164 -65.55575 32508 ft 492 kts 276°
2026-05-06 17:51 18.11483 -65.59150 32906 ft 490 kts 275°
2026-05-06 17:51 18.11800 -65.62668 33285 ft 488 kts 275°
2026-05-06 17:51 18.12135 -65.66212 33695 ft 485 kts 275°
2026-05-06 17:51 18.12472 -65.69731 34076 ft 483 kts 275°
2026-05-06 17:52 18.12809 -65.73236 34393 ft 481 kts 275°
2026-05-06 17:52 18.13144 -65.76739 34672 ft 480 kts 275°
2026-05-06 17:52 18.13476 -65.80247 34810 ft 483 kts 275°
2026-05-06 17:52 18.13808 -65.83768 34889 ft 485 kts 275°
2026-05-06 17:53 18.14469 -65.90846 34957 ft 487 kts 275°
2026-05-06 17:53 18.15128 -65.97937 34956 ft 487 kts 275°
2026-05-06 17:54 18.15786 -66.05031 34945 ft 487 kts 275°
2026-05-06 17:54 18.16440 -66.12119 34946 ft 487 kts 275°
2026-05-06 17:55 18.17088 -66.19166 34942 ft 487 kts 275°
2026-05-06 17:55 18.17737 -66.26254 35074 ft 487 kts 275°
2026-05-06 17:56 18.18384 -66.33356 35084 ft 487 kts 275°
2026-05-06 17:56 18.19030 -66.40466 35090 ft 488 kts 275°
2026-05-06 17:57 18.19672 -66.47568 35082 ft 488 kts 275°
2026-05-06 17:57 18.20309 -66.54632 35087 ft 488 kts 275°
2026-05-06 17:58 18.20946 -66.61743 35094 ft 489 kts 275°
2026-05-06 17:58 18.21582 -66.68866 35080 ft 489 kts 275°
2026-05-06 17:59 18.22216 -66.75989 35080 ft 489 kts 275°
2026-05-06 17:59 18.22848 -66.83115 35081 ft 489 kts 275°
2026-05-06 18:00 18.23476 -66.90240 35070 ft 489 kts 275°
2026-05-06 18:00 18.24101 -66.97366 35068 ft 489 kts 275°
2026-05-06 18:01 18.24721 -67.04451 35064 ft 490 kts 275°
2026-05-06 18:01 18.25343 -67.11593 35065 ft 490 kts 275°
2026-05-06 18:02 18.25394 -67.18749 35067 ft 489 kts 267°
2026-05-06 18:02 18.24986 -67.25900 35067 ft 490 kts 266°
2026-05-06 18:03 18.24503 -67.33060 35060 ft 491 kts 266°
2026-05-06 18:03 18.24018 -67.40221 35062 ft 491 kts 266°
2026-05-06 18:04 18.23545 -67.47343 35061 ft 491 kts 266°
2026-05-06 18:04 18.23072 -67.54547 35072 ft 491 kts 266°
2026-05-06 18:05 18.22598 -67.61662 35068 ft 491 kts 266°
2026-05-06 18:05 18.22117 -67.68830 35067 ft 491 kts 266°
2026-05-06 18:06 18.21634 -67.76004 35066 ft 491 kts 266°
2026-05-06 18:06 18.21149 -67.83175 35067 ft 491 kts 266°
2026-05-06 18:07 18.20662 -67.90343 35067 ft 491 kts 266°
2026-05-06 18:07 18.20200 -67.97516 35062 ft 491 kts 269°
2026-05-06 18:08 18.20702 -68.04617 35065 ft 490 kts 278°
2026-05-06 18:08 18.21708 -68.11709 35064 ft 491 kts 279°
2026-05-06 18:09 18.22795 -68.18789 35067 ft 490 kts 279°
2026-05-06 18:09 18.23873 -68.25872 35065 ft 490 kts 279°
2026-05-06 18:10 18.24934 -68.32958 35063 ft 490 kts 279°
2026-05-06 18:10 18.25985 -68.40041 35062 ft 490 kts 279°
2026-05-06 18:11 18.27011 -68.47124 35070 ft 490 kts 279°
2026-05-06 18:11 18.27995 -68.54217 35073 ft 490 kts 279°
2026-05-06 18:12 18.28976 -68.61298 35068 ft 489 kts 279°
2026-05-06 18:12 18.29956 -68.68334 35087 ft 489 kts 279°
2026-05-06 18:13 18.30943 -68.75413 35085 ft 489 kts 279°
2026-05-06 18:13 18.31928 -68.82494 35096 ft 489 kts 279°
2026-05-06 18:14 18.32908 -68.89572 35093 ft 489 kts 280°
2026-05-06 18:14 18.33887 -68.96659 35094 ft 489 kts 280°
2026-05-06 18:15 18.34864 -69.03749 35099 ft 489 kts 280°
2026-05-06 18:15 18.35834 -69.10812 35082 ft 489 kts 279°
2026-05-06 18:16 18.36805 -69.17900 35075 ft 489 kts 279°
2026-05-06 18:16 18.37774 -69.24996 35067 ft 490 kts 280°
2026-05-06 18:17 18.38742 -69.32104 35063 ft 490 kts 280°
2026-05-06 18:17 18.39708 -69.39210 35059 ft 491 kts 280°
2026-05-06 18:18 18.40671 -69.46321 35077 ft 491 kts 280°
2026-05-06 18:18 18.41633 -69.53444 35072 ft 491 kts 280°
2026-05-06 18:19 18.42593 -69.60575 35072 ft 492 kts 280°
2026-05-06 18:19 18.43353 -69.67747 35078 ft 495 kts 274°
2026-05-06 18:20 18.43490 -69.74960 35067 ft 496 kts 273°
2026-05-06 18:20 18.43518 -69.82224 35077 ft 496 kts 273°
2026-05-06 18:21 18.43530 -69.89485 35086 ft 497 kts 273°
2026-05-06 18:21 18.43586 -69.96781 35095 ft 497 kts 276°
2026-05-06 18:22 18.44117 -70.04040 35099 ft 497 kts 278°
2026-05-06 18:22 18.44741 -70.11281 35093 ft 496 kts 278°
2026-05-06 18:23 18.45348 -70.18526 35094 ft 497 kts 277°
2026-05-06 18:23 18.45657 -70.25820 35084 ft 499 kts 275°
2026-05-06 18:24 18.45878 -70.33152 35077 ft 500 kts 276°
2026-05-06 18:24 18.46147 -70.40472 35090 ft 501 kts 276°
2026-05-06 18:25 18.46447 -70.47792 35077 ft 500 kts 276°
2026-05-06 18:25 18.46750 -70.55124 35075 ft 501 kts 277°
2026-05-06 18:26 18.47049 -70.62458 35084 ft 502 kts 277°
2026-05-06 18:26 18.47341 -70.69774 35085 ft 503 kts 277°
2026-05-06 18:27 18.47631 -70.77141 35084 ft 503 kts 276°
2026-05-06 18:27 18.47919 -70.84501 35084 ft 503 kts 276°
2026-05-06 18:28 18.48203 -70.91873 35079 ft 504 kts 277°
2026-05-06 18:28 18.48489 -70.99280 35082 ft 506 kts 277°
2026-05-06 18:29 18.48769 -71.06686 35075 ft 506 kts 277°
2026-05-06 18:29 18.48999 -71.12845 35075 ft 506 kts 277°
2026-05-06 18:30 18.49318 -71.21450 35074 ft 506 kts 277°
2026-05-06 18:30 18.49590 -71.28854 35076 ft 505 kts 277°
2026-05-06 18:31 18.49816 -71.35063 35073 ft 506 kts 277°
2026-05-06 18:31 18.50083 -71.42462 35072 ft 506 kts 277°
2026-05-06 18:32 18.50346 -71.49865 35070 ft 506 kts 277°
2026-05-06 18:32 18.50607 -71.57267 35052 ft 506 kts 277°
2026-05-06 18:33 18.50864 -71.64652 35069 ft 508 kts 277°
2026-05-06 18:33 18.51121 -71.72099 35065 ft 509 kts 277°
2026-05-06 18:34 18.51375 -71.79551 35066 ft 509 kts 277°
2026-05-06 18:34 18.51647 -71.87002 35054 ft 507 kts 279°
2026-05-06 18:35 18.52517 -71.94344 35051 ft 505 kts 283°
2026-05-06 18:35 18.53553 -72.01677 35050 ft 506 kts 284°
2026-05-06 18:36 18.54614 -72.09007 35050 ft 506 kts 284°
2026-05-06 18:36 18.55666 -72.16343 35040 ft 506 kts 284°
2026-05-06 18:37 18.56708 -72.23685 35018 ft 506 kts 283°
2026-05-06 18:37 18.57337 -72.31104 35019 ft 515 kts 273°
2026-05-06 18:38 18.56606 -72.38620 35016 ft 520 kts 268°
2026-05-06 18:38 18.55572 -72.46190 35022 ft 521 kts 266°
2026-05-06 18:39 18.54497 -72.53746 35026 ft 521 kts 267°
2026-05-06 18:40 18.52920 -72.65094 35031 ft 522 kts 267°
2026-05-06 18:40 18.51878 -72.72670 35037 ft 522 kts 267°
2026-05-06 18:41 18.50833 -72.80245 35031 ft 522 kts 267°
2026-05-06 18:41 18.49793 -72.87764 35035 ft 522 kts 267°
2026-05-06 18:42 18.48746 -72.95343 35029 ft 522 kts 267°
2026-05-06 18:42 18.47728 -73.02925 35036 ft 523 kts 267°
2026-05-06 18:43 18.46710 -73.10514 35046 ft 523 kts 267°
2026-05-06 18:43 18.45686 -73.18101 35046 ft 523 kts 267°
2026-05-06 18:44 18.44653 -73.25701 35050 ft 523 kts 267°
2026-05-06 18:44 18.43619 -73.33286 35048 ft 523 kts 266°
2026-05-06 18:45 18.42589 -73.40825 35054 ft 524 kts 266°
2026-05-06 18:45 18.41547 -73.48413 35048 ft 524 kts 267°
2026-05-06 18:46 18.40503 -73.56008 35047 ft 524 kts 266°
2026-05-06 18:46 18.39455 -73.63608 35057 ft 524 kts 266°
2026-05-06 18:47 18.38404 -73.71205 35057 ft 525 kts 266°
2026-05-06 18:47 18.37350 -73.78813 35057 ft 525 kts 266°
2026-05-06 18:48 18.36299 -73.86383 35061 ft 526 kts 266°
2026-05-06 18:48 18.35233 -73.94000 35057 ft 525 kts 266°
2026-05-06 18:49 18.34166 -74.01600 35041 ft 523 kts 266°
2026-05-06 18:49 18.33098 -74.09194 35053 ft 525 kts 266°
2026-05-06 18:50 18.32028 -74.16805 35050 ft 526 kts 266°
2026-05-06 18:50 18.30961 -74.24372 35038 ft 526 kts 266°
2026-05-06 18:51 18.29886 -74.31956 35040 ft 526 kts 266°
2026-05-06 18:51 18.28803 -74.39576 35037 ft 526 kts 266°
2026-05-06 18:52 18.27718 -74.47190 35039 ft 526 kts 266°
2026-05-06 18:52 18.26628 -74.54817 35031 ft 526 kts 266°
2026-05-06 18:53 18.25539 -74.62428 35033 ft 526 kts 265°
2026-05-06 18:53 18.25358 -74.70036 35034 ft 517 kts 278°
2026-05-06 18:54 18.25905 -74.77581 35034 ft 516 kts 279°
2026-05-06 18:54 18.26557 -74.85060 35035 ft 516 kts 280°
2026-05-06 18:55 18.27208 -74.92577 35037 ft 516 kts 279°
2026-05-06 18:55 18.27839 -75.00096 35035 ft 516 kts 279°
2026-05-06 18:56 18.28460 -75.07628 35029 ft 517 kts 279°
2026-05-06 18:56 18.29078 -75.15168 35035 ft 517 kts 279°
2026-05-06 18:57 18.29693 -75.22713 35035 ft 517 kts 279°
2026-05-06 18:57 18.30306 -75.30257 35035 ft 518 kts 279°
2026-05-06 18:58 18.30916 -75.37805 35036 ft 518 kts 279°
2026-05-06 18:58 18.31519 -75.45306 35032 ft 518 kts 279°
2026-05-06 18:59 18.32125 -75.52867 35034 ft 518 kts 279°
2026-05-06 18:59 18.32727 -75.60424 35034 ft 518 kts 279°
2026-05-06 19:00 18.33315 -75.67899 34589 ft 503 kts 279°
2026-05-06 19:00 18.33598 -75.71538 34324 ft 493 kts 279°
2026-05-06 19:00 18.33874 -75.75096 34078 ft 483 kts 279°
2026-05-06 19:00 18.34055 -75.77415 33906 ft 477 kts 279°
2026-05-06 19:01 18.34414 -75.82004 33555 ft 464 kts 278°
2026-05-06 19:01 18.34672 -75.85324 33229 ft 446 kts 278°
2026-05-06 19:01 18.34919 -75.88523 32740 ft 431 kts 278°
2026-05-06 19:01 18.35160 -75.91630 32086 ft 421 kts 278°
2026-05-06 19:02 18.35398 -75.94671 31405 ft 413 kts 278°
2026-05-06 19:02 18.35632 -75.97656 30729 ft 405 kts 278°
2026-05-06 19:02 18.35862 -76.00584 30111 ft 396 kts 278°
2026-05-06 19:02 18.36081 -76.03423 29663 ft 382 kts 278°
2026-05-06 19:03 18.36292 -76.06174 29047 ft 373 kts 278°
2026-05-06 19:03 18.36496 -76.08833 28339 ft 367 kts 278°
2026-05-06 19:03 18.36702 -76.11498 27628 ft 363 kts 278°
2026-05-06 19:03 18.36905 -76.14132 26925 ft 359 kts 278°
2026-05-06 19:04 18.37106 -76.16736 26203 ft 356 kts 278°
2026-05-06 19:04 18.37304 -76.19322 25523 ft 353 kts 279°
2026-05-06 19:04 18.37500 -76.21884 24867 ft 349 kts 279°
2026-05-06 19:04 18.37693 -76.24421 24212 ft 346 kts 279°
2026-05-06 19:05 18.37884 -76.26933 23570 ft 343 kts 279°
2026-05-06 19:05 18.38075 -76.29424 22814 ft 339 kts 279°
2026-05-06 19:05 18.38269 -76.31885 22126 ft 335 kts 279°
2026-05-06 19:05 18.38465 -76.34315 21459 ft 330 kts 278°
2026-05-06 19:06 18.38657 -76.36699 20793 ft 325 kts 278°
2026-05-06 19:06 18.38847 -76.39060 20150 ft 321 kts 277°
2026-05-06 19:06 18.39032 -76.41382 19526 ft 316 kts 277°
2026-05-06 19:06 18.39214 -76.43674 18948 ft 311 kts 277°
2026-05-06 19:07 18.39392 -76.45918 18367 ft 306 kts 276°
2026-05-06 19:07 18.39508 -76.47394 17900 ft 304 kts 276°
2026-05-06 19:07 18.39737 -76.50322 17043 ft 298 kts 276°
2026-05-06 19:07 18.39907 -76.52491 16327 ft 296 kts 276°
2026-05-06 19:08 18.40078 -76.54653 15566 ft 297 kts 275°
2026-05-06 19:08 18.40247 -76.56812 14932 ft 294 kts 275°
2026-05-06 19:08 18.40411 -76.58920 14288 ft 292 kts 275°
2026-05-06 19:08 18.40577 -76.61047 13606 ft 291 kts 275°
2026-05-06 19:09 18.40743 -76.63172 12868 ft 291 kts 275°
2026-05-06 19:09 18.40907 -76.65291 12164 ft 290 kts 275°
2026-05-06 19:09 18.41071 -76.67409 11457 ft 290 kts 275°
2026-05-06 19:09 18.41236 -76.69531 10755 ft 291 kts 274°
2026-05-06 19:10 18.41401 -76.71660 10255 ft 292 kts 274°
2026-05-06 19:10 18.41567 -76.73802 10042 ft 294 kts 274°
2026-05-06 19:10 18.41733 -76.75954 10007 ft 295 kts 275°
2026-05-06 19:10 18.41898 -76.78091 10003 ft 293 kts 274°
2026-05-06 19:11 18.42064 -76.80251 10005 ft 297 kts 275°
2026-05-06 19:11 18.42231 -76.82413 10001 ft 296 kts 274°
2026-05-06 19:11 18.42395 -76.84553 10004 ft 297 kts 274°
2026-05-06 19:11 18.42561 -76.86714 10001 ft 297 kts 274°
2026-05-06 19:12 18.42725 -76.88888 10004 ft 296 kts 275°
2026-05-06 19:12 18.42886 -76.91044 10006 ft 296 kts 275°
2026-05-06 19:12 18.43048 -76.93203 10003 ft 296 kts 276°
2026-05-06 19:12 18.43213 -76.95370 10004 ft 297 kts 276°
2026-05-06 19:13 18.43379 -76.97540 10005 ft 296 kts 275°
2026-05-06 19:13 18.43542 -76.99694 10002 ft 295 kts 276°
2026-05-06 19:13 18.43706 -77.01851 10006 ft 296 kts 275°
2026-05-06 19:13 18.43868 -77.04002 10003 ft 293 kts 275°
2026-05-06 19:14 18.44023 -77.06142 10002 ft 293 kts 275°
2026-05-06 19:14 18.44179 -77.08289 10004 ft 295 kts 275°
2026-05-06 19:14 18.44335 -77.10443 10004 ft 295 kts 275°
2026-05-06 19:14 18.44491 -77.12598 10003 ft 295 kts 275°
2026-05-06 19:15 18.44648 -77.14755 10004 ft 295 kts 275°
2026-05-06 19:15 18.44803 -77.16910 10004 ft 296 kts 275°
2026-05-06 19:15 18.44959 -77.19047 10004 ft 295 kts 275°
2026-05-06 19:15 18.45115 -77.21206 10002 ft 296 kts 275°
2026-05-06 19:16 18.45271 -77.23365 10010 ft 295 kts 275°
2026-05-06 19:16 18.45427 -77.25503 10001 ft 291 kts 275°
2026-05-06 19:16 18.45578 -77.27620 10000 ft 289 kts 275°
2026-05-06 19:16 18.45729 -77.29741 9999 ft 290 kts 275°
2026-05-06 19:17 18.45884 -77.31865 10001 ft 290 kts 275°
2026-05-06 19:17 18.46036 -77.33984 9999 ft 290 kts 275°
2026-05-06 19:17 18.46135 -77.35388 10003 ft 291 kts 275°
2026-05-06 19:17 18.46284 -77.37521 9998 ft 292 kts 274°
2026-05-06 19:18 18.46430 -77.39650 9999 ft 291 kts 274°
2026-05-06 19:18 18.46574 -77.41772 9996 ft 290 kts 275°
2026-05-06 19:18 18.46766 -77.44588 9999 ft 290 kts 274°
2026-05-06 19:18 18.46863 -77.46023 10002 ft 290 kts 274°
2026-05-06 19:19 18.47006 -77.48119 9932 ft 281 kts 274°
2026-05-06 19:19 18.47123 -77.50116 9383 ft 275 kts 271°
2026-05-06 19:19 18.46809 -77.52098 8685 ft 275 kts 251°
2026-05-06 19:19 18.46155 -77.53975 8099 ft 271 kts 247°
2026-05-06 19:20 18.45473 -77.55814 7562 ft 268 kts 247°
2026-05-06 19:20 18.44801 -77.57623 7029 ft 263 kts 247°
2026-05-06 19:20 18.44140 -77.59410 6491 ft 261 kts 246°
2026-05-06 19:20 18.43516 -77.61182 5972 ft 256 kts 247°
2026-05-06 19:21 18.42911 -77.62940 5389 ft 254 kts 247°
2026-05-06 19:21 18.42310 -77.64684 4865 ft 252 kts 246°
2026-05-06 19:21 18.41704 -77.66415 4630 ft 252 kts 246°
2026-05-06 19:21 18.41088 -77.68145 4583 ft 253 kts 248°
2026-05-06 19:22 18.40450 -77.69871 4604 ft 252 kts 246°
2026-05-06 19:22 18.39824 -77.71596 4585 ft 252 kts 248°
2026-05-06 19:22 18.39199 -77.73326 4600 ft 264 kts 246°
2026-05-06 19:22 18.38541 -77.75171 4599 ft 272 kts 246°
2026-05-06 19:23 18.37864 -77.77044 4593 ft 275 kts 249°
2026-05-06 19:23 18.37145 -77.78935 4593 ft 282 kts 248°
2026-05-06 19:23 18.36400 -77.80838 4594 ft 281 kts 247°
2026-05-06 19:23 18.35645 -77.82738 4573 ft 281 kts 247°
2026-05-06 19:24 18.34890 -77.84645 4576 ft 282 kts 247°
2026-05-06 19:24 18.34150 -77.86548 4576 ft 280 kts 248°
2026-05-06 19:24 18.33419 -77.88428 4575 ft 276 kts 246°
2026-05-06 19:24 18.32689 -77.90304 4581 ft 278 kts 247°
2026-05-06 19:25 18.31959 -77.92189 4578 ft 279 kts 248°
2026-05-06 19:25 18.31224 -77.94090 4579 ft 280 kts 248°
2026-05-06 19:25 18.30493 -77.95989 4582 ft 280 kts 247°
2026-05-06 19:25 18.29788 -77.97865 4581 ft 277 kts 247°
2026-05-06 19:26 18.29093 -77.99745 4583 ft 277 kts 247°
2026-05-06 19:26 18.28410 -78.01637 4572 ft 276 kts 248°
2026-05-06 19:26 18.27721 -78.03530 4583 ft 273 kts 248°
2026-05-06 19:26 18.27063 -78.05367 4588 ft 265 kts 250°
2026-05-06 19:27 18.26862 -78.07277 4508 ft 264 kts 277°
2026-05-06 19:27 18.27476 -78.09088 4178 ft 263 kts 303°
2026-05-06 19:27 18.28508 -78.10631 4084 ft 252 kts 308°
2026-05-06 19:27 18.29550 -78.12044 4067 ft 237 kts 309°
2026-05-06 19:28 18.30542 -78.13382 4093 ft 229 kts 309°
2026-05-06 19:28 18.31540 -78.14722 4099 ft 241 kts 310°
2026-05-06 19:28 18.32621 -78.16170 4083 ft 261 kts 309°
2026-05-06 19:28 18.33721 -78.17647 4032 ft 250 kts 309°
2026-05-06 19:29 18.34773 -78.19060 3937 ft 240 kts 309°
2026-05-06 19:29 18.35784 -78.20413 3809 ft 231 kts 310°
2026-05-06 19:29 18.36745 -78.21717 3694 ft 220 kts 309°
2026-05-06 19:29 18.37640 -78.22939 3606 ft 207 kts 309°
2026-05-06 19:30 18.38556 -78.24090 3575 ft 204 kts 319°
2026-05-06 19:30 18.39818 -78.24695 3583 ft 198 kts 358°
2026-05-06 19:30 18.41170 -78.24578 3577 ft 193 kts 16°
2026-05-06 19:30 18.42422 -78.24097 3416 ft 191 kts 30°
2026-05-06 19:31 18.43387 -78.23197 3196 ft 183 kts 57°
2026-05-06 19:31 18.43627 -78.21947 3009 ft 176 kts 103°
2026-05-06 19:31 18.43155 -78.19432 2982 ft 180 kts 92°
2026-05-06 19:32 18.43114 -78.18122 2986 ft 179 kts 94°
2026-05-06 19:32 18.43032 -78.16811 2980 ft 179 kts 95°
2026-05-06 19:32 18.42919 -78.15508 2975 ft 178 kts 96°
2026-05-06 19:32 18.42791 -78.14203 2980 ft 178 kts 97°
2026-05-06 19:33 18.42654 -78.12924 2981 ft 178 kts 97°
2026-05-06 19:33 18.42510 -78.11642 2979 ft 174 kts 98°
2026-05-06 19:33 18.42388 -78.10376 2974 ft 174 kts 93°
2026-05-06 19:33 18.42624 -78.09128 2984 ft 176 kts 70°
2026-05-06 19:34 18.43137 -78.07955 2978 ft 176 kts 64°
2026-05-06 19:34 18.43680 -78.06797 2889 ft 177 kts 66°
2026-05-06 19:34 18.44184 -78.05621 2673 ft 176 kts 67°
2026-05-06 19:34 18.44687 -78.04454 2428 ft 173 kts 66°
2026-05-06 19:35 18.45183 -78.03315 2226 ft 169 kts 67°
2026-05-06 19:35 18.45666 -78.02203 1986 ft 165 kts 66°
2026-05-06 19:35 18.46132 -78.01125 1777 ft 157 kts 66°
2026-05-06 19:35 18.46570 -78.00114 1577 ft 146 kts 66°
2026-05-06 19:36 18.46975 -77.99179 1388 ft 139 kts 66°
2026-05-06 19:36 18.47376 -77.98254 1223 ft 139 kts 66°
2026-05-06 19:36 18.47778 -77.97325 1042 ft 139 kts 66°
2026-05-06 19:36 18.48181 -77.96396 884 ft 138 kts 66°
2026-05-06 19:37 18.48574 -77.95491 716 ft 132 kts 65°
2026-05-06 19:37 18.48938 -77.94652 500 ft 121 kts 66°
2026-05-06 19:37 18.49281 -77.93847 385 ft 123 kts 66°
2026-05-06 19:37 18.49652 -77.93001 219 ft 128 kts 64°
2026-05-06 19:38 18.50016 -77.92166 51 ft 122 kts 67°
2026-05-06 19:38 18.50354 -77.91364 20 ft 117 kts 66°
2026-05-06 19:38 18.50601 -77.90794 23 ft 64 kts 65°
2026-05-06 19:38 18.50764 -77.90417 18 ft 39 kts 65°
2026-05-06 19:39 18.50821 -77.90207 16 ft 18 kts 123°
2026-05-06 19:39 18.50757 -77.90191 18 ft 10 kts 189°
2026-05-06 19:39 18.50693 -77.90215 17 ft 10 kts 206°
2026-05-06 19:39 18.50681 -77.90224 17 ft 0 kts 217°
2026-05-06 19:40 18.50680 -77.90224 17 ft 0 kts 217°
2026-05-06 19:40 18.50642 -77.90273 17 ft 21 kts 240°
2026-05-06 19:40 18.50575 -77.90429 17 ft 25 kts 245°
2026-05-06 19:40 18.50493 -77.90612 18 ft 30 kts 244°
2026-05-06 19:41 18.50417 -77.90793 17 ft 27 kts 246°
2026-05-06 19:41 18.50352 -77.90941 18 ft 17 kts 245°
2026-05-06 19:41 18.50296 -77.91072 17 ft 22 kts 246°
2026-05-06 19:41 18.50239 -77.91207 18 ft 21 kts 246°
2026-05-06 19:42 18.50172 -77.91359 18 ft 24 kts 244°
2026-05-06 19:42 18.50099 -77.91526 17 ft 26 kts 246°
2026-05-06 19:42 18.50056 -77.91629 19 ft 10 kts 246°
2026-05-06 19:42 18.50023 -77.91708 20 ft 13 kts 246°
2026-05-06 19:43 18.49982 -77.91807 21 ft 16 kts 246°
2026-05-06 19:43 18.49933 -77.91924 17 ft 19 kts 246°
2026-05-06 19:43 18.49907 -77.91960 17 ft 4 kts 206°
2026-05-06 19:43 18.49875 -77.91957 20 ft 6 kts 161°
2026-05-06 19:44 18.49858 -77.91948 20 ft 1 kts 155°
2026-05-06 19:44 18.49854 -77.91947 20 ft 0 kts 155°
2026-05-06 19:44 18.49854 -77.91946 20 ft 0 kts 155°